{"data":{"norad_id":65049,"epoch":"2026-05-25T02:39:57.661056Z","epoch_age_seconds":55489,"freshness":"FRESH","line1":"1 65049U 25162G   26145.11108404 -.00000079  00000+0  97530-4 0  9991","line2":"2 65049  50.0079 348.4326 0000493  41.1498 318.9412 13.29323511 40293","mean_motion":13.29323511,"eccentricity":4.93e-5,"inclination_deg":50.0079,"raan_deg":348.4326,"arg_perigee_deg":41.1498,"mean_anomaly_deg":318.9412,"bstar":9.753e-5,"rev_number":4029,"period_min":108.32577533491,"perigee_km":1148.9448645808,"apogee_km":1149.6870714434,"semimajor_km":7527.4529680121,"source":"CELESTRAK","updated_at":"2026-05-25T13:38:05.088522Z"}}